7 * 24
多渠道服务支持
STARLINK-35377是美国太空探索技术公司(SpaceX)星链(Starlink)星座的低轨互联网卫星,于2025年10月26日发射升空。星链项目依托“一箭多星”技术规模化组网,旨在构建全球覆盖的卫星互联网,为偏远地区、海事、航空等场景提供高速网络接入服务。作为星链大规模部署中的一员,该卫星进一步扩充了星链低轨星座的在轨规模,助力SpaceX实现全球无缝网络覆盖的战略目标,也凸显了美国在商业低轨卫星领域的领先布局。
美国
(US)
| 数据来源 | 国际轨道数据 |
| 星历时间: | 2026-05-25T07:57:00+0800 11小时前 查看轨道信息 |
| 半长轴: | 6853.355km |
| 偏心率: | 0.0001231 |
| 轨道倾角: | 53.157° |
| 近地点辐角 | 79.492° |
| 升交点赤经 | 251.044° |
| 平近点角 | 280.622° |
| 近地点: | 474.374km |
| 远地点: | 476.062km |
| 周期: | 94.105分钟 |
| 每日圈数: | 15.301991 |